QPF
0.01 0.01 0.01 0.00 0.00 0.00 0.00 0.00 0.00 0.00 0.00 0.00 0.00 0.00 0.00 0.00 0.00 0.00 0.00 0.00 0.00 0.00 0.00 0.00 0.00 0.00 0.00 0.00 0.00 0.00 0.00 0.00 0.00 0.00 0.00 0.00 0.00 0.00 0.00 0.00 0.00 0.00 0.00 0.00 0.00
0.01 0.01 0.00 0.00 0.00 0.00 0.00 0.00 0.00 0.00 0.00 0.00 0.00 0.00 0.00 0.00 0.00 0.00 0.00 0.00 0.00 0.00 0.00 0.00 0.00 0.00 0.00 0.00 0.00 0.00 0.00 0.00 0.00 0.00 0.00 0.00 0.00 0.00 0.00 0.00 0.00 0.00 0.00 0.00 0.00
0.00 0.01 0.01 0.01 0.00 0.00 0.00 0.00 0.00 0.00 0.00 0.00 0.00 0.00 0.00 0.00 0.00 0.00 0.00 0.00 0.00 0.00 0.00 0.00 0.00 0.00 0.00 0.00 0.00 0.00 0.00 0.00 0.00 0.00 0.00 0.00 0.00 0.00 0.00 0.00 0.00 0.00 0.00 0.00 0.00
0.00 0.00 0.01 0.00 0.00 0.00 0.00 0.00 0.00 0.00 0.00 0.00 0.00 0.00 0.00 0.00 0.00 0.00 0.00 0.00 0.00 0.00 0.00 0.00 0.00 0.00 0.00 0.00 0.00 0.00 0.00 0.00 0.00 0.00 0.00 0.00 0.00 0.00 0.00 0.00 0.00 0.00 0.00 0.00 0.00
0.00 0.00 0.01 0.00 0.00 0.00 0.00 0.00 0.00 0.00 0.00 0.00 0.00 0.00 0.00 0.00 0.00 0.00 0.00 0.00 0.00 0.00 0.00 0.00 0.00 0.00 0.00 0.00 0.00 0.00 0.00 0.00 0.00 0.00 0.00 0.00 0.00 0.00 0.00 0.00 0.00 0.00 0.00 0.00 0.00
0.00 0.00 0.00 0.00 0.00 0.00 0.00 0.00 0.00 0.00 0.00 0.00 0.00 0.00 0.00 0.00 0.00 0.00 0.00 0.00 0.00 0.00 0.00 0.00 0.00 0.00 0.00 0.00 0.00 0.00 0.00 0.00 0.00 0.00 0.00 0.00 0.00 0.00 0.00 0.00 0.00 0.00 0.00 0.00 0.00
0.00 0.00 0.00 0.00 0.00 0.00 0.00 0.00 0.00 0.00 0.00 0.00 0.00 0.00 0.00 0.00 0.00 0.00 0.00 0.00 0.00 0.00 0.00 0.00 0.00 0.00 0.00 0.00 0.00 0.00 0.00 0.00 0.00 0.00 0.00 0.00 0.00 0.00 0.00 0.00 0.00 0.00 0.00 0.00 0.00
0.00 0.00 0.00 0.00 0.00 0.00 0.00 0.00 0.00 0.00 0.00 0.00 0.00 0.00 0.00 0.00 0.00 0.00 0.00 0.00 0.00 0.00 0.00 0.00 0.00 0.00 0.00 0.00 0.00 0.00 0.00 0.00 0.00 0.00 0.00 0.00 0.00 0.00 0.00 0.00 0.00 0.00 0.00 0.00 0.00
0.00 0.00 0.00 0.00 0.01 0.00 0.00 0.00 0.00 0.00 0.00 0.00 0.00 0.00 0.00 0.00 0.00 0.00 0.00 0.00 0.00 0.00 0.00 0.00 0.00 0.00 0.00 0.00 0.00 0.00 0.00 0.00 0.00 0.00 0.00 0.00 0.00 0.00 0.00 0.00 0.00 0.00 0.00 0.00 0.00
0.00 0.00 0.00 0.00 0.01 0.00 0.00 0.00 0.00 0.00 0.00 0.00 0.00 0.00 0.00 0.00 0.00 0.00 0.00 0.00 0.00 0.00 0.00 0.00 0.00 0.00 0.00 0.00 0.00 0.00 0.00 0.00 0.00 0.00 0.00 0.00 0.00 0.00 0.00 0.00 0.00 0.00 0.00 0.00 0.00
0.00 0.00 0.00 0.00 0.01 0.00 0.00 0.00 0.00 0.00 0.00 0.00 0.00 0.00 0.00 0.00 0.00 0.00 0.00 0.00 0.00 0.00 0.00 0.00 0.00 0.00 0.00 0.00 0.00 0.00 0.00 0.00 0.00 0.00 0.00 0.00 0.00 0.00 0.00 0.00 0.00 0.00 0.00 0.00 0.00
0.00 0.00 0.01 0.01 0.01 0.00 0.00 0.00 0.00 0.00 0.00 0.00 0.00 0.00 0.00 0.00 0.00 0.00 0.00 0.00 0.00 0.00 0.00 0.00 0.00 0.00 0.00 0.00 0.00 0.00 0.00 0.00 0.00 0.00 0.00 0.00 0.00 0.00 0.00 0.00 0.00 0.00 0.00 0.00 0.00
0.00 0.00 0.01 0.01 0.01 0.01 0.00 0.00 0.00 0.00 0.00 0.00 0.00 0.00 0.00 0.00 0.00 0.00 0.00 0.00 0.00 0.00 0.00 0.00 0.00 0.00 0.00 0.00 0.00 0.00 0.00 0.00 0.00 0.00 0.00 0.00 0.00 0.00 0.00 0.00 0.00 0.00 0.00 0.00 0.00
0.01 0.00 0.01 0.02 0.01 0.00 0.00 0.00 0.00 0.00 0.00 0.00 0.00 0.00 0.00 0.00 0.00 0.00 0.00 0.00 0.00 0.00 0.00 0.00 0.00 0.00 0.00 0.00 0.00 0.00 0.00 0.00 0.00 0.00 0.00 0.00 0.00 0.00 0.00 0.00 0.00 0.00 0.00 0.00 0.00
0.03 0.00 0.00 0.01 0.00 0.00 0.00 0.00 0.00 0.00 0.00 0.00 0.00 0.00 0.00 0.00 0.00 0.00 0.00 0.00 0.00 0.00 0.00 0.00 0.00 0.00 0.00 0.00 0.00 0.00 0.00 0.00 0.00 0.00 0.00 0.00 0.00 0.00 0.00 0.00 0.00 0.00 0.00 0.00 0.00
0.03 0.03 0.02 0.01 0.00 0.00 0.00 0.00 0.00 0.00 0.00 0.00 0.00 0.00 0.00 0.00 0.00 0.00 0.00 0.00 0.00 0.00 0.00 0.00 0.00 0.00 0.00 0.00 0.00 0.00 0.00 0.00 0.00 0.00 0.00 0.00 0.00 0.00 0.00 0.00 0.00 0.00 0.00 0.00 0.00
0.02 0.03 0.02 0.00 0.00 0.00 0.00 0.00 0.00 0.00 0.00 0.00 0.00 0.00 0.00 0.00 0.00 0.00 0.00 0.00 0.00 0.00 0.00 0.00 0.00 0.00 0.00 0.00 0.00 0.00 0.00 0.00 0.00 0.00 0.00 0.00 0.00 0.00 0.00 0.00 0.00 0.00 0.00 0.00 0.00
0.02 0.03 0.03 0.01 0.00 0.00 0.01 0.00 0.00 0.00 0.00 0.00 0.00 0.00 0.00 0.00 0.00 0.00 0.00 0.00 0.00 0.00 0.00 0.00 0.00 0.00 0.00 0.00 0.00 0.00 0.00 0.00 0.00 0.00 0.00 0.00 0.00 0.00 0.00 0.00 0.00 0.00 0.00 0.00 0.00
0.00 0.02 0.03 0.02 0.01 0.00 0.01 0.00 0.00 0.00 0.00 0.00 0.00 0.00 0.00 0.00 0.00 0.00 0.00 0.00 0.00 0.00 0.00 0.00 0.00 0.00 0.00 0.00 0.00 0.00 0.00 0.00 0.00 0.00 0.00 0.00 0.00 0.00 0.00 0.00 0.00 0.00 0.00 0.00 0.00
0.00 0.01 0.01 0.03 0.02 0.01 0.01 0.00 0.00 0.00 0.00 0.00 0.00 0.00 0.00 0.00 0.00 0.00 0.00 0.00 0.00 0.00 0.00 0.00 0.00 0.00 0.00 0.00 0.00 0.00 0.00 0.00 0.00 0.00 0.00 0.00 0.00 0.00 0.00 0.00 0.00 0.00 0.00 0.00 0.00
0.00 0.00 0.00 0.02 0.03 0.01 0.00 0.00 0.00 0.00 0.00 0.00 0.00 0.00 0.00 0.00 0.00 0.00 0.00 0.00 0.00 0.00 0.00 0.00 0.00 0.00 0.00 0.00 0.00 0.00 0.00 0.00 0.00 0.00 0.00 0.00 0.00 0.00 0.00 0.00 0.00 0.00 0.00 0.00 0.00
0.00 0.00 0.00 0.01 0.01 0.00 0.00 0.00 0.00 0.00 0.00 0.00 0.00 0.00 0.00 0.00 0.00 0.00 0.00 0.00 0.00 0.00 0.00 0.00 0.00 0.00 0.00 0.00 0.00 0.00 0.00 0.00 0.00 0.00 0.00 0.00 0.00 0.00 0.00 0.00 0.00 0.00 0.00 0.00 0.00
0.00 0.00 0.01 0.00 0.00 0.00 0.00 0.00 0.00 0.00 0.00 0.00 0.00 0.00 0.00 0.00 0.00 0.00 0.00 0.00 0.00 0.00 0.00 0.00 0.00 0.00 0.00 0.00 0.00 0.00 0.00 0.00 0.00 0.00 0.00 0.00 0.00 0.00 0.00 0.00 0.00 0.00 0.00 0.00 0.00
0.00 0.00 0.00 0.00 0.00 0.00 0.00 0.00 0.00 0.01 0.01 0.00 0.00 0.00 0.00 0.00 0.00 0.00 0.00 0.00 0.00 0.00 0.00 0.00 0.00 0.00 0.00 0.00 0.00 0.00 0.00 0.00 0.00 0.00 0.00 0.00 0.00 0.00 0.00 0.00 0.00 0.00 0.00 0.00 0.00
0.00 0.00 0.00 0.00 0.00 0.00 0.00 0.00 0.00 0.00 0.01 0.01 0.00 0.00 0.00 0.00 0.00 0.00 0.00 0.00 0.00 0.00 0.00 0.00 0.00 0.00 0.00 0.00 0.00 0.00 0.00 0.00 0.00 0.00 0.00 0.00 0.00 0.00 0.00 0.00 0.00 0.00 0.00 0.00 0.00
0.00 0.00 0.00 0.00 0.00 0.00 0.00 0.00 0.00 0.00 0.00 0.00 0.00 0.00 0.00 0.00 0.00 0.00 0.00 0.00 0.00 0.00 0.00 0.00 0.00 0.00 0.00 0.00 0.00 0.00 0.00 0.00 0.00 0.00 0.00 0.00 0.00 0.00 0.00 0.00 0.00 0.00 0.00 0.00 0.00
0.00 0.00 0.00 0.00 0.00 0.00 0.00 0.00 0.00 0.00 0.00 0.00 0.00 0.00 0.00 0.00 0.00 0.00 0.00 0.00 0.00 0.00 0.00 0.00 0.00 0.00 0.00 0.00 0.00 0.00 0.00 0.00 0.00 0.00 0.00 0.00 0.00 0.00 0.00 0.00 0.00 0.00 0.00 0.00 0.00
MSLP
1012.72 1013.17 1013.78 1014.26 1014.69 1015.07 1015.44 1015.96 1016.26 1016.49 1016.50 1016.68 1016.62 1016.98 1016.81 1016.75 1016.98 1016.77 1016.04 1015.29 1015.25 1015.38 1015.65 1015.94 1015.79 1015.69 1015.77 1015.83 1015.85 1015.53 1014.64 1014.18 1014.31 1014.49 1014.86 1015.77 1015.63 1016.26 1016.59 1016.44 1016.87 1017.10 1017.26 1018.23 1018.49
1012.34 1012.65 1013.36 1013.82 1014.40 1014.81 1015.26 1015.70 1015.96 1016.33 1016.52 1016.74 1016.88 1016.85 1016.90 1016.60 1016.57 1015.90 1015.02 1014.95 1015.17 1015.37 1015.48 1015.57 1015.60 1015.66 1015.37 1015.81 1015.68 1015.12 1014.73 1014.40 1014.53 1014.50 1014.81 1015.45 1015.55 1015.82 1016.16 1016.21 1016.57 1017.15 1017.92 1018.51 1019.36
1012.05 1012.59 1012.98 1013.69 1014.07 1014.64 1015.10 1015.39 1015.68 1016.22 1016.65 1016.76 1016.78 1016.75 1016.99 1016.52 1016.01 1014.55 1014.72 1014.89 1015.22 1015.50 1015.50 1015.43 1015.53 1015.59 1015.34 1015.86 1015.56 1015.29 1014.98 1015.00 1015.12 1015.38 1015.37 1015.56 1015.89 1016.12 1015.98 1015.99 1015.74 1016.25 1017.21 1018.57 1019.25
1011.60 1012.22 1012.73 1013.27 1013.66 1014.34 1014.81 1015.01 1015.58 1016.19 1016.48 1016.58 1016.62 1016.68 1016.80 1016.27 1015.48 1014.61 1014.40 1014.63 1014.93 1015.34 1015.39 1015.48 1015.28 1015.58 1015.44 1015.71 1015.56 1015.32 1015.52 1015.68 1015.94 1016.07 1016.23 1015.97 1016.19 1016.22 1016.18 1015.96 1016.43 1016.43 1016.68 1018.10 1018.89
1011.18 1011.88 1012.45 1012.90 1013.45 1014.11 1014.68 1014.98 1015.29 1015.66 1016.24 1016.55 1016.45 1016.45 1016.57 1015.91 1014.62 1014.65 1014.59 1014.68 1014.68 1015.20 1015.27 1015.26 1015.12 1015.30 1015.26 1015.52 1015.70 1015.49 1015.78 1016.25 1016.51 1016.63 1016.64 1016.58 1016.58 1016.48 1016.07 1016.27 1017.00 1017.34 1017.35 1017.56 1018.05
1010.78 1011.45 1012.15 1012.80 1013.57 1014.01 1014.54 1015.02 1015.18 1015.56 1016.12 1016.60 1016.44 1016.38 1016.09 1015.41 1014.74 1014.54 1014.63 1014.95 1014.77 1015.05 1015.48 1015.44 1015.10 1014.95 1015.24 1015.80 1015.90 1015.88 1016.11 1016.47 1016.92 1016.93 1016.97 1016.80 1016.99 1016.98 1016.28 1016.40 1016.78 1017.26 1017.31 1017.25 1017.57
1010.42 1011.24 1012.12 1012.78 1013.44 1013.74 1014.40 1015.06 1015.30 1015.52 1016.01 1016.43 1016.27 1016.12 1015.82 1014.97 1014.79 1014.75 1014.93 1014.86 1014.82 1014.60 1015.12 1015.31 1014.96 1015.04 1015.51 1016.09 1016.51 1016.28 1016.64 1016.77 1016.99 1017.11 1017.31 1017.01 1017.02 1016.44 1016.35 1016.58 1016.55 1016.76 1017.01 1017.20 1017.29
1010.12 1010.86 1011.76 1012.34 1013.17 1013.56 1014.38 1015.00 1015.24 1015.59 1016.06 1016.27 1016.28 1016.02 1015.07 1015.09 1014.79 1014.89 1014.76 1014.93 1015.04 1014.70 1014.98 1015.33 1015.31 1015.50 1016.02 1016.45 1016.60 1016.44 1016.73 1016.91 1017.06 1017.34 1017.59 1017.22 1016.30 1016.14 1016.73 1016.58 1016.21 1016.43 1016.44 1016.70 1016.82
1009.89 1010.49 1011.38 1012.12 1012.98 1013.51 1014.32 1014.96 1015.38 1015.67 1016.05 1016.13 1016.22 1015.73 1015.09 1015.39 1015.12 1014.78 1014.68 1014.82 1015.13 1015.05 1015.25 1015.53 1015.51 1015.81 1016.20 1016.01 1016.51 1016.60 1016.13 1016.94 1017.33 1017.71 1017.40 1017.22 1016.33 1016.18 1016.59 1016.43 1016.02 1016.16 1016.02 1016.18 1016.31
1009.49 1010.14 1011.06 1011.93 1012.56 1013.50 1014.34 1015.11 1015.49 1015.67 1015.92 1015.97 1015.91 1016.06 1015.21 1014.87 1014.64 1014.87 1015.00 1015.26 1015.24 1015.30 1015.17 1015.44 1015.76 1015.93 1015.94 1015.89 1015.59 1016.11 1016.41 1017.03 1017.40 1017.96 1017.64 1017.49 1016.39 1015.92 1016.27 1016.34 1015.74 1015.75 1015.75 1015.83 1015.76
1009.09 1009.86 1010.69 1011.45 1012.43 1013.39 1014.39 1014.97 1015.48 1015.71 1015.40 1014.73 1014.70 1014.55 1014.52 1015.00 1014.72 1014.93 1014.93 1014.98 1014.98 1014.90 1014.64 1015.53 1015.45 1015.11 1015.51 1016.02 1016.20 1016.35 1016.60 1017.02 1017.61 1018.13 1018.05 1017.48 1016.61 1015.92 1015.75 1015.90 1015.49 1015.28 1015.32 1015.33 1015.40
1008.75 1009.68 1010.46 1011.21 1012.12 1013.21 1013.78 1013.09 1012.85 1012.86 1014.70 1014.93 1014.78 1014.72 1014.80 1014.71 1014.84 1015.00 1015.02 1014.82 1014.88 1014.90 1015.35 1016.08 1015.23 1015.72 1016.13 1016.68 1016.69 1016.80 1016.83 1017.23 1018.04 1018.47 1018.30 1017.61 1016.62 1015.57 1015.48 1015.26 1014.80 1014.79 1015.00 1015.30 1015.60
1008.26 1009.08 1009.99 1011.19 1012.23 1013.17 1013.18 1013.10 1012.77 1012.53 1013.22 1014.58 1014.63 1014.58 1014.58 1014.85 1014.34 1014.62 1014.69 1014.92 1014.86 1015.34 1015.15 1015.08 1015.62 1015.80 1016.31 1016.86 1016.75 1017.16 1017.25 1017.87 1018.28 1018.72 1018.47 1017.63 1016.03 1015.13 1015.09 1015.31 1015.24 1015.34 1015.42 1015.83 1016.16
1007.79 1008.80 1009.57 1010.81 1012.70 1012.65 1013.09 1012.94 1012.86 1012.61 1012.92 1014.40 1014.55 1013.85 1014.29 1014.36 1014.62 1014.76 1014.54 1014.54 1015.17 1015.36 1015.86 1015.73 1016.21 1016.21 1016.64 1016.90 1017.14 1017.69 1017.94 1018.24 1018.42 1018.01 1018.14 1018.11 1016.18 1015.36 1015.07 1015.03 1015.34 1015.55 1015.85 1016.46 1016.61
1006.98 1008.15 1009.21 1010.53 1010.95 1012.21 1012.12 1013.07 1012.78 1012.67 1012.95 1012.86 1013.58 1013.59 1013.45 1013.93 1014.15 1014.88 1014.82 1014.69 1014.80 1015.34 1015.94 1015.85 1016.24 1016.76 1016.74 1016.66 1017.33 1018.03 1018.28 1018.31 1018.60 1018.74 1018.69 1018.48 1017.89 1015.28 1015.29 1014.76 1015.22 1015.85 1016.55 1017.12 1017.42
1006.67 1007.69 1008.87 1010.48 1010.99 1011.53 1012.32 1012.85 1013.02 1013.54 1012.65 1012.78 1013.02 1013.14 1013.59 1013.93 1014.48 1014.87 1014.94 1014.97 1015.41 1015.54 1015.91 1016.44 1016.96 1016.75 1016.82 1017.59 1017.78 1018.60 1018.67 1019.03 1019.24 1019.29 1018.85 1017.86 1017.54 1015.25 1015.07 1014.86 1015.61 1016.31 1017.24 1017.68 1017.97
1006.85 1007.43 1008.38 1009.52 1010.21 1011.33 1012.46 1012.91 1013.81 1013.29 1012.18 1012.51 1012.28 1012.64 1012.66 1013.51 1014.41 1014.36 1014.49 1014.65 1014.32 1015.10 1015.61 1016.62 1017.05 1017.14 1017.17 1017.85 1018.74 1018.18 1017.96 1018.96 1019.46 1019.53 1018.68 1018.93 1018.31 1014.78 1015.16 1015.46 1015.95 1016.61 1017.54 1018.19 1018.45
1006.65 1007.17 1007.86 1008.62 1009.58 1011.02 1012.25 1012.56 1013.26 1010.95 1011.12 1011.49 1011.58 1012.27 1012.53 1013.19 1013.63 1013.97 1014.19 1013.94 1013.85 1013.69 1014.37 1015.36 1016.97 1016.85 1016.95 1016.87 1017.16 1017.70 1017.18 1017.41 1018.42 1019.28 1018.91 1019.44 1017.43 1015.14 1015.64 1016.05 1016.54 1017.30 1018.13 1018.59 1018.79
1006.20 1006.49 1007.43 1008.54 1008.85 1010.34 1011.28 1011.75 1009.42 1009.57 1010.09 1011.17 1011.84 1011.89 1012.66 1012.59 1012.57 1013.32 1013.05 1012.54 1012.58 1012.78 1013.16 1014.55 1015.77 1016.54 1016.92 1016.83 1016.69 1017.64 1017.54 1017.26 1018.27 1020.00 1019.09 1017.39 1016.27 1015.51 1015.96 1016.45 1016.97 1017.76 1018.55 1018.94 1019.29
1006.65 1005.72 1006.79 1007.94 1008.59 1009.70 1011.06 1009.76 1009.44 1009.54 1009.59 1010.01 1009.95 1010.80 1011.01 1011.45 1012.11 1012.52 1012.78 1011.54 1012.08 1012.39 1012.55 1013.79 1015.55 1017.04 1017.34 1017.01 1016.97 1016.35 1016.55 1017.46 1017.52 1017.91 1017.60 1015.92 1015.65 1014.29 1015.39 1016.00 1016.93 1017.80 1018.61 1019.36 1019.74
1007.41 1006.79 1007.57 1007.60 1009.05 1009.98 1009.49 1009.04 1009.57 1009.66 1009.30 1009.20 1009.09 1010.10 1010.04 1010.42 1010.75 1011.28 1011.21 1011.46 1011.38 1012.31 1012.71 1013.56 1014.44 1017.29 1017.35 1016.05 1015.32 1016.49 1016.14 1016.22 1016.13 1016.27 1015.65 1014.95 1013.72 1013.50 1013.60 1014.81 1016.16 1017.49 1018.40 1019.18 1019.64
1008.46 1008.36 1007.82 1006.84 1008.93 1009.26 1008.98 1008.60 1009.25 1009.43 1009.49 1009.28 1009.17 1009.42 1009.46 1009.91 1010.36 1010.81 1010.50 1010.77 1010.90 1011.48 1012.26 1013.03 1014.19 1015.81 1015.87 1015.96 1015.92 1014.78 1014.30 1014.29 1014.40 1014.75 1015.41 1015.18 1013.38 1013.90 1014.45 1015.08 1016.30 1017.68 1018.81 1019.50 1020.01
1008.51 1008.95 1008.34 1008.12 1008.47 1008.92 1009.23 1009.16 1009.45 1009.30 1009.07 1009.19 1009.15 1008.97 1009.37 1009.49 1010.14 1010.25 1010.86 1011.28 1011.32 1011.45 1011.38 1012.58 1013.63 1015.07 1015.81 1016.17 1015.98 1015.00 1014.58 1014.10 1013.94 1014.57 1014.33 1014.93 1013.13 1014.43 1014.92 1015.66 1016.58 1017.58 1018.96 1019.91 1020.22
1008.93 1009.69 1009.66 1009.39 1009.32 1008.75 1008.89 1008.95 1009.25 1009.21 1009.12 1009.30 1009.14 1009.18 1009.43 1009.53 1009.66 1009.93 1011.15 1011.81 1011.85 1011.75 1011.73 1012.11 1012.88 1012.74 1012.08 1012.21 1013.84 1014.64 1014.20 1014.34 1014.12 1014.07 1012.46 1013.10 1012.24 1014.43 1015.32 1016.02 1017.07 1018.04 1018.84 1019.64 1020.11
1009.04 1009.54 1009.56 1009.40 1009.65 1009.05 1008.95 1008.92 1009.05 1009.23 1009.16 1009.34 1009.56 1009.14 1008.88 1009.51 1009.90 1010.22 1010.95 1012.07 1012.38 1012.45 1012.40 1012.28 1012.63 1013.12 1012.86 1013.21 1013.32 1013.00 1013.15 1013.46 1013.27 1011.73 1012.32 1010.36 1012.10 1012.69 1013.78 1015.09 1016.11 1017.49 1018.72 1019.53 1020.05
1009.10 1009.52 1009.76 1009.42 1009.32 1009.60 1009.19 1009.10 1008.85 1009.10 1009.01 1009.10 1009.32 1009.51 1009.31 1009.10 1008.93 1010.09 1010.58 1011.41 1011.71 1012.97 1012.82 1012.70 1012.87 1013.24 1013.55 1013.82 1013.80 1013.46 1012.86 1012.12 1011.61 1011.08 1011.39 1010.55 1010.89 1011.52 1013.43 1014.90 1016.33 1017.15 1018.28 1019.03 1019.59
1009.55 1009.51 1009.15 1009.46 1009.57 1009.67 1009.44 1009.45 1009.39 1009.62 1009.80 1009.06 1009.06 1009.44 1009.43 1009.03 1009.78 1009.97 1009.98 1010.44 1010.85 1011.52 1012.29 1012.80 1013.30 1014.12 1013.75 1014.13 1014.48 1013.88 1010.09 1011.61 1011.10 1010.70 1010.32 1010.61 1008.73 1012.51 1013.66 1014.65 1015.35 1016.59 1017.60 1018.38 1019.24
Thickness
5601 5605 5606 5610 5614 5617 5621 5623 5626 5632 5637 5640 5645 5645 5649 5652 5653 5656 5660 5674 5678 5684 5688 5691 5695 5697 5700 5698 5704 5708 5705 5702 5704 5707 5715 5713 5717 5717 5720 5720 5719 5723 5725 5720 5724
5596 5602 5603 5607 5608 5612 5616 5618 5621 5626 5629 5634 5637 5641 5644 5650 5652 5655 5669 5672 5674 5678 5683 5685 5687 5693 5696 5692 5699 5705 5703 5707 5717 5723 5720 5717 5721 5720 5719 5719 5718 5718 5718 5719 5713
5588 5594 5600 5601 5605 5606 5610 5616 5618 5620 5621 5627 5632 5638 5638 5645 5651 5664 5668 5669 5671 5674 5681 5687 5688 5689 5689 5689 5695 5698 5701 5707 5710 5713 5719 5718 5714 5718 5718 5713 5728 5723 5722 5713 5711
5583 5588 5593 5598 5602 5602 5606 5613 5613 5613 5616 5622 5628 5634 5636 5645 5640 5664 5669 5671 5673 5673 5678 5679 5686 5678 5683 5681 5692 5694 5696 5699 5700 5705 5705 5711 5713 5712 5714 5722 5722 5728 5729 5716 5709
5578 5582 5588 5593 5598 5598 5599 5605 5610 5613 5613 5616 5624 5630 5635 5641 5654 5663 5667 5670 5674 5673 5674 5675 5678 5678 5682 5683 5687 5693 5693 5693 5694 5696 5701 5705 5705 5708 5712 5720 5714 5714 5717 5718 5716
5571 5576 5582 5586 5589 5593 5595 5597 5603 5607 5608 5609 5617 5624 5632 5637 5653 5660 5664 5667 5672 5672 5668 5673 5677 5686 5679 5677 5683 5689 5688 5689 5689 5692 5695 5699 5698 5700 5711 5714 5712 5709 5713 5718 5717
5565 5569 5572 5577 5582 5588 5590 5589 5595 5601 5602 5604 5612 5620 5625 5641 5648 5653 5657 5662 5668 5673 5666 5672 5681 5681 5679 5670 5674 5679 5675 5682 5685 5689 5688 5696 5693 5698 5709 5709 5709 5708 5711 5712 5716
5561 5565 5566 5572 5575 5581 5581 5584 5589 5593 5596 5600 5606 5615 5625 5635 5643 5648 5654 5656 5662 5671 5670 5670 5676 5671 5669 5669 5669 5669 5673 5670 5677 5681 5683 5691 5694 5701 5697 5703 5710 5709 5712 5711 5714
5554 5559 5561 5565 5567 5572 5573 5576 5580 5585 5588 5595 5600 5611 5620 5626 5634 5643 5648 5649 5653 5660 5662 5663 5665 5662 5664 5665 5659 5660 5670 5663 5667 5671 5678 5683 5691 5696 5694 5698 5705 5705 5710 5711 5713
5550 5553 5555 5558 5562 5562 5564 5566 5572 5578 5582 5588 5596 5599 5614 5621 5630 5634 5641 5642 5643 5648 5653 5655 5653 5653 5655 5658 5655 5655 5660 5656 5664 5663 5667 5668 5683 5695 5693 5692 5702 5705 5708 5708 5712
5543 5548 5550 5553 5554 5554 5555 5561 5567 5571 5580 5595 5600 5605 5611 5614 5625 5626 5634 5637 5641 5644 5644 5643 5648 5649 5657 5656 5654 5655 5652 5657 5654 5654 5658 5666 5673 5686 5694 5692 5698 5704 5707 5709 5711
5536 5539 5542 5546 5546 5546 5554 5571 5583 5592 5573 5580 5588 5596 5603 5611 5613 5618 5627 5631 5632 5632 5632 5632 5640 5647 5646 5640 5644 5647 5647 5649 5644 5644 5650 5655 5666 5684 5688 5693 5703 5706 5707 5706 5706
5534 5538 5540 5538 5538 5541 5553 5561 5569 5580 5577 5572 5580 5588 5596 5602 5611 5614 5623 5622 5625 5619 5632 5640 5640 5638 5637 5633 5639 5638 5643 5635 5642 5635 5638 5648 5670 5677 5683 5680 5688 5691 5695 5696 5695
5529 5532 5532 5531 5528 5539 5543 5551 5556 5566 5564 5563 5568 5583 5589 5597 5600 5606 5616 5620 5613 5619 5617 5628 5622 5629 5630 5631 5636 5623 5630 5629 5627 5641 5643 5635 5656 5667 5676 5677 5679 5685 5687 5685 5688
5527 5527 5527 5529 5537 5534 5544 5538 5546 5553 5540 5569 5565 5580 5586 5592 5600 5595 5605 5610 5611 5610 5613 5621 5615 5619 5625 5636 5630 5628 5621 5624 5621 5622 5625 5627 5631 5669 5658 5675 5677 5677 5674 5674 5675
5523 5524 5524 5521 5528 5529 5523 5526 5533 5525 5534 5555 5563 5570 5575 5581 5582 5586 5594 5599 5600 5601 5603 5604 5604 5618 5627 5609 5619 5608 5611 5609 5608 5610 5611 5635 5634 5661 5667 5672 5667 5667 5663 5662 5665
5515 5518 5522 5522 5527 5516 5509 5514 5501 5516 5552 5553 5563 5568 5580 5573 5572 5580 5584 5588 5596 5591 5593 5590 5595 5602 5609 5605 5597 5607 5619 5594 5593 5595 5610 5598 5606 5665 5659 5661 5663 5663 5656 5652 5654
5511 5513 5516 5520 5518 5505 5504 5508 5495 5547 5555 5556 5563 5565 5569 5568 5573 5572 5576 5582 5594 5600 5598 5594 5584 5597 5604 5614 5610 5608 5622 5610 5588 5588 5608 5580 5611 5654 5645 5643 5649 5648 5644 5644 5646
5508 5512 5510 5508 5511 5507 5502 5495 5542 5551 5561 5551 5553 5558 5555 5566 5574 5569 5578 5590 5600 5601 5606 5591 5595 5586 5591 5598 5610 5597 5597 5609 5578 5524 5582 5615 5626 5641 5634 5634 5636 5635 5633 5634 5633
5493 5512 5509 5503 5506 5501 5487 5518 5539 5545 5553 5554 5560 5561 5564 5567 5567 5568 5565 5593 5588 5594 5600 5590 5579 5568 5575 5587 5588 5601 5603 5586 5590 5577 5582 5618 5611 5651 5629 5631 5627 5625 5625 5620 5619
5478 5494 5489 5495 5492 5484 5491 5523 5527 5530 5546 5552 5560 5551 5565 5564 5572 5568 5577 5584 5593 5581 5587 5580 5583 5553 5561 5581 5599 5582 5585 5588 5597 5591 5598 5603 5631 5645 5652 5637 5628 5621 5615 5612 5610
5459 5469 5476 5491 5475 5478 5494 5520 5520 5524 5529 5541 5549 5551 5558 5561 5562 5563 5578 5583 5585 5583 5576 5582 5567 5556 5567 5568 5573 5595 5602 5601 5593 5586 5581 5586 5622 5611 5623 5625 5620 5608 5599 5596 5595
5446 5446 5462 5466 5469 5476 5488 5502 5505 5511 5527 5532 5540 5549 5549 5555 5552 5562 5562 5561 5566 5572 5576 5567 5555 5540 5547 5555 5555 5566 5576 5590 5596 5575 5576 5577 5621 5593 5602 5603 5604 5597 5587 5580 5581
5436 5447 5437 5437 5442 5480 5481 5491 5493 5510 5516 5520 5529 5534 5539 5544 5550 5555 5549 5544 5547 5560 5561 5564 5548 5568 5579 5593 5573 5561 5567 5570 5575 5566 5594 5586 5624 5587 5587 5590 5584 5579 5576 5572 5570
5420 5430 5430 5446 5445 5461 5482 5489 5494 5495 5510 5513 5512 5528 5538 5533 5540 5542 5547 5530 5536 5540 5547 5553 5545 5554 5571 5562 5561 5568 5566 5564 5561 5588 5574 5612 5595 5603 5596 5589 5583 5574 5564 5557 5556
5410 5417 5418 5430 5438 5446 5460 5463 5484 5493 5502 5504 5512 5515 5524 5531 5544 5522 5535 5534 5538 5527 5535 5539 5536 5546 5539 5545 5544 5539 5556 5566 5572 5582 5579 5595 5591 5605 5590 5578 5565 5565 5554 5552 5551
5390 5402 5419 5422 5427 5437 5446 5452 5459 5468 5471 5497 5508 5511 5515 5530 5524 5526 5534 5536 5538 5535 5532 5528 5523 5520 5540 5531 5524 5524 5574 5557 5567 5574 5582 5573 5615 5573 5567 5564 5565 5555 5548 5546 5540